Regional Weather Roundup
Issued by NWS

Home | Current Version | Previous Version | Text Only | Print | Product List | Glossary Off
Versions: 1 2 3 4 5 6 7 8 9 10 11 12 13 14 15 16 17 18 19 20 21 22 23 24 25 26 27 28 29 30 31 32 33 34 35 36 37 38 39 40 41 42 43 44 45 46 47 48 49 50

548
ASUS43 KFSD 260710
RWRSD

WEATHER ROUNDUP FOR SOUTH DAKOTA
NATIONAL WEATHER SERVICE SIOUX FALLS SD
200 AM CDT TUE JUL 26 2016

NOTE: "FAIR" INDICATES FEW OR NO CLOUDS BELOW 12,000 FEET WITH NO
SIGNIFICANT WEATHER AND/OR OBSTRUCTIONS TO VISIBILITY.


SDZ001>005-009-010-012>017-260800-
NORTHWEST AND NORTH CENTRAL SOUTH DAKOTA

CITY           SKY/WX    TMP DP  RH WIND       PRES   REMARKS
BUFFALO          N/A     75  51  43 NW5       29.94
FAITH            N/A     74  53  48 S12       29.97
MOBRIDGE       CLOUDY    77  59  53 SE10      29.93
$$

SDZ012>016-024>037-041>051-057-063-072>074-260800-
SOUTHWEST AND SOUTH CENTRAL SOUTH DAKOTA

CITY           SKY/WX    TMP DP  RH WIND       PRES   REMARKS
RAPID CTY ARPT CLEAR     73  60  63 SE12      30.03
PIERRE         CLEAR     75  57  53 E8        29.98
CUSTER         CLEAR     67  57  70 CALM      30.20
ELLSWORTH AFB  CLEAR     73  60  64 S7        30.02S
PHILIP         CLEAR     76  64  66 S10       29.99
PINE RIDGE     CLEAR     75  63  66 S20G25    30.05
WINNER         FAIR      75  58  55 S14       30.05
$$

SDZ004>011-016>023-039-040-260800-
NORTHEAST SOUTH DAKOTA

CITY           SKY/WX    TMP DP  RH WIND       PRES   REMARKS
ABERDEEN       PTCLDY    70  59  68 S10       29.96
WATERTOWN      CLEAR     71  62  73 S8        30.04
BROOKINGS      PTCLDY    68  63  84 S8        30.07
SISSETON         N/A     78  59  51 SW23G31   29.93
$$

SDZ017-020-022-023-036>040-048>070-260800-
SOUTHEAST SOUTH DAKOTA

CITY           SKY/WX    TMP DP  RH WIND       PRES   REMARKS
SIOUX FALLS    CLEAR     73  63  70 S8        30.08
HURON          CLEAR     69  58  67 S9        30.01
CHAMBERLAIN    CLEAR     75  64  69 S9G17     30.03F
MITCHELL       CLEAR     72  61  68 S8        30.04
YANKTON        CLEAR     70  63  78 S3        30.07F
$$

ABBREVIATIONS USED IN REMARKS
   TC - TEMPERATURE IN CELSIUS
  WCI - WIND CHILL INDEX
   HX - HEAT INDEX
  VSB - VISIBILITY





USA.gov is the U.S. government's official web portal to all federal, state and local government web resources and services.